STARLINK-36086

Last updated on Fri Dec 19 2025 00:02:09 GMT+0000 (Coordinated Universal Time)

1 66980U 25288X 25352.58336806 -.01515816 00000+0 -66268-2 0 9998 2 66980 43.0016 131.3044 0001410 269.4322 342.1805 15.86338400 2772
UTC large
Height (km)
Speed (km/s)
/
Latitude / Longitude
Inclination (degrees)
Orbital Period (minutes)
Azimuth
Elevation
Range (km)
Doppler Factor

Next 0 passes for location: London (51.5072 / 0.1276)

Sorry there are no passes over London.